#timestamp,LO_Frequency,Hit,StdDev 
1593446415.7,286047005.2,N
1593446435.6,286047004.9,N
1593446455.4,286047003.0,N
1593446475.2,286047003.5,N
1593446495.1,286047003.5,N
1593446496.0,286047003.5,N
1593446515.8,286047005.1,N
1593446535.6,286047006.9,Y
1593446555.5,286046999.7,P
1593446575.3,286046999.5,N
1593446595.2,286046991.7,P
1593446615.9,286046996.1,N
1593446635.7,286046998.2,N
1593446655.6,286046996.5,N
1593446675.4,286046998.4,N
1593446695.2,286046998.3,N
1593446715.1,286047002.8,N
1593446716.0,286047002.8,N
1593446735.8,286046999.3,N
1593446755.7,286046996.5,N
1593446775.5,286046995.7,N
1593446795.3,286046995.0,N
1593446815.2,286046995.2,N
1593446835.0,286046996.5,N
1593446835.9,286046996.5,N
1593446855.7,286046993.6,N
1593446875.6,286046993.8,N
1593446895.4,286046993.3,N
1593446915.3,286046994.3,N
1593446935.1,286046997.8,N
1593446936.0,286046997.8,N
1593446955.8,286046996.7,N
1593446975.7,286046999.6,N
1593446995.5,286046999.9,N
1593447015.3,286046998.3,N
1593447035.2,286047000.1,N
1593447055.0,286047000.0,N
1593447055.9,286047000.0,N
1593447075.8,286047002.8,N
1593447095.6,286047001.6,N
1593447115.4,286047003.1,N
1593447135.3,286047001.7,N
1593447155.1,286047000.3,N
1593447175.8,286046999.7,N
1593447195.7,286047001.0,N
1593447215.5,286046997.8,N
1593447235.4,286046996.5,N
1593447255.2,286046997.6,N
1593447275.0,286046996.3,N
1593447275.9,286046996.3,N
1593447295.8,286046993.6,N
1593447315.6,286046993.0,N
1593447335.4,286046992.5,N
1593447355.3,286046994.1,N
1593447375.1,286046995.4,N
1593447395.9,286046994.2,N
1593447415.7,286046995.8,N
1593447435.5,286046991.2,N
1593447455.4,286046991.1,N
1593447475.2,286046991.4,N
1593447495.0,286046988.6,Y
1593447495.9,286046988.6,P
1593447515.8,286046990.6,N
1593447535.6,286046991.2,N
1593447555.5,286046994.4,N
1593447575.3,286046996.3,N
1593447595.1,286046996.8,N
1593447615.9,286046997.8,N
1593447635.7,286047001.1,N
1593447655.5,286046998.1,N
1593447675.4,286047001.0,N
1593447695.2,286047000.0,N
1593447715.1,286046997.1,N
1593447716.0,286046997.1,N
1593447735.8,286046997.5,N
1593447755.6,286046995.3,N
1593447775.5,286046995.3,N
1593447795.3,286046996.0,N
1593447815.1,286046994.4,N
1593447835.9,286046996.1,N
1593447855.7,286046994.6,N
1593447875.6,286046990.8,Y
1593447895.4,286046994.9,P
1593447915.2,286046995.6,P
1593447935.1,286046997.7,P
1593447936.0,286046997.7,N
1593447955.8,286046997.3,N
1593447975.6,286046996.7,Y
1593447995.5,286047002.0,P
1593448015.3,286047002.6,N
1593448035.2,286047002.7,N
1593448055.9,286046999.9,N
1593448075.7,286047001.8,N
1593448095.6,286047005.5,N
1593448115.4,286047007.2,N
1593448135.2,286047004.6,N
1593448155.1,286047005.9,N
1593448156.0,286047005.9,N
1593448175.8,286047000.1,N
1593448195.7,286047000.1,N
1593448215.5,286047003.8,N
1593448235.3,286047004.5,N
1593448255.2,286047008.4,N
1593448275.9,286047011.5,Y
1593448295.7,286047010.2,P
1593448315.6,286047013.0,P
1593448335.4,286047015.0,P
1593448355.3,286047015.8,Y
1593448375.1,286047006.4,P
1593448376.0,286047006.4,P
1593448395.8,286047004.5,N
1593448415.7,286047005.3,N
1593448435.5,286047000.5,N
1593448455.3,286047002.8,N
1593448475.2,286047000.6,N
1593448495.0,286047003.7,N
1593448495.9,286047003.7,N
1593448515.8,286046998.6,N
1593448535.6,286046997.7,N
1593448555.4,286046998.8,N
1593448575.3,286046994.9,N
1593448595.1,286046998.3,N
1593448615.8,286046996.5,N
1593448635.7,286047000.5,N
1593448655.5,286046998.5,N
1593448675.3,286047001.0,N
1593448695.2,286047001.4,N
1593448715.0,286047003.6,N
1593448715.9,286047003.6,N
1593448735.8,286047000.1,N
1593448755.6,286047001.0,N
1593448775.4,286047002.2,N
1593448795.3,286047000.8,N
1593448815.1,286046998.5,N
1593448835.8,286047001.1,N
1593448855.7,286046998.6,N
1593448875.5,286047001.2,N
1593448895.4,286046998.3,N
1593448915.2,286046999.5,N
1593448935.0,286046998.2,N
1593448935.9,286046998.2,N
1593448955.8,286046997.8,N
1593448975.6,286046991.9,Y
1593448995.4,286046992.0,P
1593449015.3,286046995.2,N
1593449035.1,286046999.6,N
1593449055.9,286046998.4,N
1593449075.7,286046999.0,N
1593449095.6,286046998.6,N
1593449115.4,286046997.6,N
1593449135.2,286046995.9,N
1593449155.1,286046996.1,N
1593449156.0,286046996.1,N
1593449175.8,286046997.4,N
1593449195.7,286046995.0,N
1593449215.5,286046997.6,N
1593449235.3,286046993.4,Y
1593449255.2,286046999.0,P
1593449275.0,286046993.8,P
1593449275.9,286046993.8,N
1593449295.8,286046992.9,Y
1593449315.6,286046999.6,P
1593449335.4,286046997.6,N
1593449355.3,286046998.0,N
1593449375.1,286046993.7,Y
1593449395.8,286046994.6,P
1593449415.7,286046999.4,N
1593449435.5,286046996.6,N
1593449455.4,286046998.6,N
1593449475.2,286046999.4,N
1593449495.0,286046996.6,N
1593449495.9,286046996.6,N
1593449515.8,286046997.0,N
1593449535.6,286046996.0,N
1593449555.4,286046994.8,Y
1593449575.3,286046999.5,P
1593449595.1,286046999.8,N
1593449615.9,286047000.7,N
1593449635.7,286047002.6,N
1593449655.5,286047001.2,N
1593449675.4,286046997.3,N
1593449695.2,286046997.3,N
1593449715.0,286046999.6,N
1593449715.9,286046999.6,N
1593449735.8,286046996.0,N
1593449755.6,286046996.3,N
1593449775.5,286047000.7,N
1593449795.3,286046999.8,N
1593449815.1,286047002.6,N
1593449835.9,286046998.4,N
1593449855.7,286046996.6,N
1593449875.5,286046995.0,N
1593449895.4,286046997.8,N
1593449915.2,286046994.1,N
1593449935.1,286046993.6,N
1593449966.0,286046995.5,E
1593449975.0,286046998.6,N
1593449975.9,286046998.6,P
1593449995.7,286047005.9,P
